Weather History for KBRO - September, 2012

Change the Weather History Date:

Thursday, September 27, 2012

  Actual Average Record
Temperature  
Mean Temperature 86 °F 80 °F  
Max Temperature 94 °F 89 °F 99 °F (2005)
Min Temperature 77 °F 71 °F 56 °F (1889)
Degree Days  
Heating Degree Days 0 0  
Month to date heating degree days 0 0  
Since 1 July heating degree days 0 0  
Cooling Degree Days 21 15  
Month to date cooling degree days 506 460  
Year to date cooling degree days 3959 3367  
Growing Degree Days 35 (Base 50)    
Moisture  
Dew Point 74 °F    
Average Humidity 72    
Maximum Humidity 91    
Minimum Humidity 52    
Precipitation  
Precipitation 0.00 in 0.20 in 2.46 in (1996)
Month to date precipitation 0.97 5.32  
Year to date precipitation 17.33 20.13  
Sea Level Pressure  
Sea Level Pressure 29.96 in    
Wind  
Wind Speed 9 mph (SE)    
Max Wind Speed 18 mph    
Max Gust Speed 23 mph    
Visibility 10 miles    
Events      
T = Trace of Precipitation, MM = Missing Value Source: NWS Daily Summary

Daily Weather History Graph

Daily Weather History Graph

Search for Another Location

Airport or City:

Trip Planner

Search our weather history database for the weather conditions in past years. The results will help you decide how hot, cold, wet, or windy it might be!

Date:

Astronomy

Sep. 27, 2012 Rise Set
Actual Time 7:20 AM CDT 7:20 PM CDT
Civil Twilight 6:57 AM CDT 7:42 PM CDT
Nautical Twilight 6:30 AM CDT 8:09 PM CDT
Astronomical Twilight 6:04 AM CDT 8:36 PM CDT
Moon 5:44 PM CDT (9/27) 5:01 AM CDT (9/27)
Length of Visible Light 12h 45m
Length of Day
11h 59m
Waxing Gibbous, 94% of the Moon is Illuminated
Sep 27
Waxing Gibbous
Sep 29
Full
Oct 8
Last Quarter
Oct 15
New
Oct 21
First Quarter

Hourly Weather History & Observations

Time (CDT) Temp. Heat Index Dew Point Humidity Pressure Visibility Wind Dir Wind Speed Gust Speed Precip Events Conditions
12:53 AM 80.1 °F 85.1 °F 75.0 °F 85% 29.98 in 10.0 mi SE 6.9 mph - N/A   Clear
1:53 AM 80.1 °F 84.2 °F 73.0 °F 79% 29.96 in 10.0 mi SE 8.1 mph - N/A   Clear
2:53 AM 79.0 °F - 75.0 °F 88% 29.97 in 10.0 mi SSE 6.9 mph - N/A   Clear
3:53 AM 79.0 °F - 75.0 °F 88% 29.96 in 10.0 mi SE 4.6 mph - N/A   Clear
4:53 AM 78.1 °F - 75.0 °F 90% 29.96 in 10.0 mi Calm Calm - N/A   Scattered Clouds
5:53 AM 78.1 °F - 75.0 °F 90% 29.96 in 10.0 mi Calm Calm - N/A   Mostly Cloudy
6:53 AM 78.1 °F - 75.0 °F 90% 29.98 in 10.0 mi ESE 5.8 mph - N/A   Scattered Clouds
7:53 AM 78.1 °F - 73.9 °F 87% 29.99 in 10.0 mi Calm Calm - N/A   Clear
8:53 AM 82.9 °F 90.8 °F 75.9 °F 79% 29.99 in 10.0 mi ESE 9.2 mph - N/A   Clear
9:53 AM 86.0 °F 95.1 °F 75.0 °F 70% 30.00 in 10.0 mi ESE 12.7 mph - N/A   Clear
10:53 AM 90.0 °F 99.0 °F 73.9 °F 59% 30.01 in 10.0 mi ESE 12.7 mph 19.6 mph N/A   Scattered Clouds
11:53 AM 88.0 °F 95.6 °F 73.0 °F 61% 30.00 in 10.0 mi SSE 12.7 mph 20.7 mph N/A   Mostly Cloudy
12:53 PM 91.0 °F 99.3 °F 73.0 °F 55% 29.99 in 10.0 mi SSE 15.0 mph - N/A   Mostly Cloudy
1:53 PM 91.0 °F 98.2 °F 72.0 °F 53% 29.96 in 10.0 mi SE 12.7 mph 20.7 mph N/A   Scattered Clouds
2:53 PM 91.9 °F 98.4 °F 71.1 °F 50% 29.94 in 10.0 mi SSE 13.8 mph 18.4 mph N/A   Mostly Cloudy
3:53 PM 91.0 °F 98.2 °F 72.0 °F 53% 29.92 in 10.0 mi SSE 18.4 mph 23.0 mph N/A   Scattered Clouds
4:53 PM 91.0 °F 98.2 °F 72.0 °F 53% 29.91 in 10.0 mi ESE 13.8 mph 19.6 mph N/A   Partly Cloudy
5:53 PM 88.0 °F 97.5 °F 75.0 °F 65% 29.92 in 10.0 mi ESE 13.8 mph - N/A   Clear
6:53 PM 84.9 °F 93.3 °F 75.0 °F 72% 29.92 in 10.0 mi ESE 15.0 mph - N/A   Clear
7:53 PM 84.0 °F 91.9 °F 75.0 °F 74% 29.93 in 10.0 mi SE 13.8 mph - N/A   Clear
8:53 PM 82.0 °F 86.7 °F 72.0 °F 71% 29.94 in 10.0 mi SE 9.2 mph - N/A   Clear
9:53 PM 82.0 °F 88.6 °F 75.0 °F 79% 29.96 in 10.0 mi East 4.6 mph - N/A   Clear
10:53 PM 81.0 °F 87.3 °F 75.9 °F 85% 29.99 in 10.0 mi SE 3.5 mph - N/A   Clear
11:53 PM 80.1 °F 85.4 °F 75.9 °F 87% 29.99 in 10.0 mi SE 5.8 mph - N/A   Clear